Location: �terpigny
(49.8910°N, 2.9249°E)
Time: 10:40:40
(UTC+00:00)

Cosmos 2369 - Pass Details

Date: 24 October 2021
Orbit: 838 x 857 km, 71.0° (Epoch: 05 December)

Event Time Altitude Azimuth Distance (km) Brightness Sun altitude
Rises 16:58:26 0° 210° (SSW) 3,385 7.6 -3.8°
Reaches altitude 10° 17:00:52 10° 211° (SSW) 2,456 6.9 -4.2°
Maximum altitude 17:06:31 81° 299° (WNW) 862 3.9 -5.0°
Drops below altitude 10° 17:12:14 10° 28° (NNE) 2,485 5.8 -5.9°
Sets 17:14:43 0° 29° (NNE) 3,427 6.5 -6.3°
